Time,TemperatureF,DewpointF,PressureIn,WindDirection,WindDirectionDegrees,WindSpeedMPH,WindSpeedGustMPH,Humidity,HourlyPrecipIn,Conditions,Clouds,dailyrainin,SolarRadiationWatts/m^2,SoftwareType,DateUTC
2013-07-21 00:05:00,47.9,46.0,29.98,ENE,59,0.0,0.0,94,0.00,,,0.00,0,weatherlink.com 1.10,2013-07-21 04:05:00,
2013-07-21 00:20:00,47.4,46.0,29.98,ENE,59,0.0,0.0,93,0.00,,,0.00,0,weatherlink.com 1.10,2013-07-21 04:20:00,
2013-07-21 00:35:00,47.1,46.0,29.98,ENE,59,0.0,0.0,94,0.00,,,0.00,0,weatherlink.com 1.10,2013-07-21 04:35:00,
2013-07-21 00:50:00,46.0,44.0,30.00,ENE,59,0.0,1.0,93,0.00,,,0.00,0,weatherlink.com 1.10,2013-07-21 04:50:00,
2013-07-21 01:05:00,45.9,44.0,30.00,ENE,59,0.0,1.0,94,0.00,,,0.00,0,weatherlink.com 1.10,2013-07-21 05:05:00,
2013-07-21 01:20:00,46.3,45.0,30.00,ENE,59,0.0,0.0,95,0.00,,,0.00,0,weatherlink.com 1.10,2013-07-21 05:20:00,
2013-07-21 01:35:00,46.8,46.0,29.99,ENE,59,0.0,0.0,95,0.00,,,0.00,0,weatherlink.com 1.10,2013-07-21 05:35:00,
2013-07-21 01:50:00,46.2,45.0,29.98,ENE,59,0.0,0.0,94,0.00,,,0.00,0,weatherlink.com 1.10,2013-07-21 05:50:00,
2013-07-21 02:05:00,45.6,44.0,29.99,ENE,59,0.0,0.0,94,0.00,,,0.00,0,weatherlink.com 1.10,2013-07-21 06:05:00,
2013-07-21 02:20:00,44.9,43.0,29.99,ENE,59,0.0,0.0,94,0.00,,,0.00,0,weatherlink.com 1.10,2013-07-21 06:20:00,
2013-07-21 02:35:00,44.7,43.0,29.99,ENE,59,0.0,0.0,95,0.00,,,0.00,0,weatherlink.com 1.10,2013-07-21 06:35:00,
2013-07-21 02:50:00,44.6,43.0,29.99,ENE,59,0.0,1.0,95,0.00,,,0.00,0,weatherlink.com 1.10,2013-07-21 06:50:00,
2013-07-21 03:05:00,45.0,44.0,29.98,ENE,59,0.0,0.0,96,0.00,,,0.00,0,weatherlink.com 1.10,2013-07-21 07:05:00,
2013-07-21 03:20:00,44.9,44.0,29.98,ENE,59,0.0,0.0,95,0.00,,,0.00,0,weatherlink.com 1.10,2013-07-21 07:20:00,
2013-07-21 03:35:00,45.1,44.0,29.98,ENE,59,0.0,0.0,96,0.00,,,0.00,0,weatherlink.com 1.10,2013-07-21 07:35:00,
2013-07-21 03:50:00,44.5,43.0,29.98,ENE,59,0.0,0.0,95,0.00,,,0.00,0,weatherlink.com 1.10,2013-07-21 07:50:00,
2013-07-21 04:05:00,44.1,43.0,29.98,ENE,59,0.0,0.0,95,0.00,,,0.00,0,weatherlink.com 1.10,2013-07-21 08:05:00,
2013-07-21 04:20:00,43.6,42.0,29.98,ENE,59,0.0,0.0,95,0.00,,,0.00,0,weatherlink.com 1.10,2013-07-21 08:20:00,
2013-07-21 04:35:00,43.3,42.0,29.98,ENE,59,0.0,0.0,95,0.00,,,0.00,0,weatherlink.com 1.10,2013-07-21 08:35:00,
2013-07-21 04:50:00,43.1,42.0,29.98,ENE,59,0.0,0.0,95,0.00,,,0.00,0,weatherlink.com 1.10,2013-07-21 08:50:00,
2013-07-21 05:05:00,43.7,43.0,29.98,ENE,59,0.0,0.0,96,0.00,,,0.00,0,weatherlink.com 1.10,2013-07-21 09:05:00,
2013-07-21 05:20:00,42.9,42.0,29.98,ENE,59,0.0,0.0,95,0.00,,,0.00,0,weatherlink.com 1.10,2013-07-21 09:20:00,
2013-07-21 05:35:00,42.5,41.0,29.98,ENE,59,0.0,0.0,95,0.00,,,0.00,0,weatherlink.com 1.10,2013-07-21 09:35:00,
2013-07-21 05:50:00,42.4,41.0,29.98,ENE,59,0.0,0.0,95,0.00,,,0.00,0,weatherlink.com 1.10,2013-07-21 09:50:00,
2013-07-21 06:05:00,42.2,41.0,29.99,ENE,59,0.0,0.0,95,0.00,,,0.00,0,weatherlink.com 1.10,2013-07-21 10:05:00,
2013-07-21 06:20:00,42.1,41.0,29.99,NNE,28,0.0,0.0,95,0.00,,,0.00,0,weatherlink.com 1.10,2013-07-21 10:20:00,
2013-07-21 06:35:00,42.0,41.0,29.99,NNE,28,0.0,0.0,96,0.00,,,0.00,9,weatherlink.com 1.10,2013-07-21 10:35:00,
2013-07-21 06:50:00,42.2,41.0,30.00,NNE,28,0.0,0.0,96,0.00,,,0.00,16,weatherlink.com 1.10,2013-07-21 10:50:00,
2013-07-21 07:05:00,42.5,42.0,30.00,NNE,28,0.0,0.0,96,0.00,,,0.00,25,weatherlink.com 1.10,2013-07-21 11:05:00,
2013-07-21 07:20:00,43.1,42.0,30.00,NNE,28,0.0,0.0,96,0.00,,,0.00,32,weatherlink.com 1.10,2013-07-21 11:20:00,
2013-07-21 07:35:00,44.5,44.0,30.01,NNE,28,0.0,0.0,97,0.00,,,0.00,42,weatherlink.com 1.10,2013-07-21 11:35:00,
2013-07-21 07:50:00,45.8,45.0,30.00,NNE,28,0.0,0.0,97,0.00,,,0.00,49,weatherlink.com 1.10,2013-07-21 11:50:00,
2013-07-21 08:05:00,48.2,47.0,30.00,NNE,28,0.0,1.0,97,0.00,,,0.00,132,weatherlink.com 1.10,2013-07-21 12:05:00,
2013-07-21 08:20:00,51.3,51.0,30.00,NNE,28,0.0,1.0,98,0.00,,,0.00,123,weatherlink.com 1.10,2013-07-21 12:20:00,
2013-07-21 08:35:00,53.3,53.0,30.01,NNE,28,0.0,1.0,97,0.00,,,0.00,72,weatherlink.com 1.10,2013-07-21 12:35:00,
2013-07-21 08:51:00,54.9,53.0,30.01,NNE,28,0.0,1.0,92,0.00,,,0.00,283,weatherlink.com 1.10,2013-07-21 12:51:00,
2013-07-21 09:06:00,57.3,53.0,30.01,NE,54,0.0,4.0,85,0.00,,,0.00,176,weatherlink.com 1.10,2013-07-21 13:06:00,
2013-07-21 09:21:00,57.5,53.0,30.01,NE,54,1.0,2.0,84,0.00,,,0.00,176,weatherlink.com 1.10,2013-07-21 13:21:00,
2013-07-21 09:36:00,58.0,54.0,30.01,NE,51,0.0,1.0,85,0.00,,,0.00,199,weatherlink.com 1.10,2013-07-21 13:36:00,
2013-07-21 09:51:00,58.0,53.0,30.01,ENE,72,0.0,4.0,84,0.00,,,0.00,232,weatherlink.com 1.10,2013-07-21 13:51:00,
2013-07-21 10:06:00,58.4,53.0,30.01,ENE,72,1.0,2.0,81,0.00,,,0.00,274,weatherlink.com 1.10,2013-07-21 14:06:00,
2013-07-21 10:21:00,58.9,53.0,30.00,ENE,60,0.0,5.0,80,0.00,,,0.00,311,weatherlink.com 1.10,2013-07-21 14:21:00,
2013-07-21 10:36:00,59.2,52.0,30.01,East,89,1.0,3.0,76,0.00,,,0.00,246,weatherlink.com 1.10,2013-07-21 14:36:00,
2013-07-21 10:51:00,59.3,51.0,30.01,East,88,0.0,3.0,75,0.00,,,0.00,297,weatherlink.com 1.10,2013-07-21 14:51:00,
2013-07-21 11:06:00,59.6,51.0,30.01,ENE,67,0.0,4.0,74,0.00,,,0.00,287,weatherlink.com 1.10,2013-07-21 15:06:00,
2013-07-21 11:21:00,60.3,53.0,30.01,ENE,63,2.0,3.0,77,0.00,,,0.00,288,weatherlink.com 1.10,2013-07-21 15:21:00,
2013-07-21 11:36:00,60.1,52.0,30.01,ENE,63,1.0,3.0,75,0.00,,,0.00,339,weatherlink.com 1.10,2013-07-21 15:36:00,
2013-07-21 11:51:00,62.0,55.0,30.00,NE,54,1.0,5.0,79,0.00,,,0.00,814,weatherlink.com 1.10,2013-07-21 15:51:00,
2013-07-21 12:06:00,62.3,54.0,29.99,NE,51,0.0,3.0,73,0.00,,,0.00,418,weatherlink.com 1.10,2013-07-21 16:06:00,
2013-07-21 12:21:00,63.5,54.0,29.99,ENE,59,3.0,7.0,72,0.00,,,0.00,930,weatherlink.com 1.10,2013-07-21 16:21:00,
2013-07-21 12:36:00,63.1,54.0,29.99,ENE,60,4.0,9.0,73,0.00,,,0.00,751,weatherlink.com 1.10,2013-07-21 16:36:00,
2013-07-21 12:51:00,64.0,55.0,29.99,NNE,29,0.0,5.0,73,0.00,,,0.00,749,weatherlink.com 1.10,2013-07-21 16:51:00,
2013-07-21 13:06:00,64.4,57.0,29.98,NE,38,0.0,4.0,76,0.00,,,0.00,575,weatherlink.com 1.10,2013-07-21 17:06:00,
2013-07-21 13:21:00,66.8,56.0,29.98,NNE,28,2.0,4.0,69,0.00,,,0.00,1030,weatherlink.com 1.10,2013-07-21 17:21:00,
2013-07-21 13:36:00,66.2,59.0,29.98,NNE,19,0.0,2.0,77,0.00,,,0.00,939,weatherlink.com 1.10,2013-07-21 17:36:00,
2013-07-21 13:51:00,66.2,57.0,29.97,ENE,65,4.0,5.0,72,0.00,,,0.00,1109,weatherlink.com 1.10,2013-07-21 17:51:00,
2013-07-21 14:06:00,66.9,58.0,29.96,NE,43,0.0,2.0,74,0.00,,,0.00,918,weatherlink.com 1.10,2013-07-21 18:06:00,
2013-07-21 14:21:00,68.1,58.0,29.95,NE,43,0.0,3.0,71,0.00,,,0.00,953,weatherlink.com 1.10,2013-07-21 18:21:00,
2013-07-21 14:36:00,67.6,58.0,29.95,NNE,22,1.0,5.0,72,0.00,,,0.00,1025,weatherlink.com 1.10,2013-07-21 18:36:00,
2013-07-21 14:51:00,67.2,57.0,29.95,ENE,57,4.0,5.0,70,0.00,,,0.00,274,weatherlink.com 1.10,2013-07-21 18:51:00,
2013-07-21 15:06:00,65.8,57.0,29.95,ENE,62,7.0,8.0,73,0.00,,,0.00,257,weatherlink.com 1.10,2013-07-21 19:06:00,
2013-07-21 15:21:00,66.2,59.0,29.95,NNE,21,1.0,5.0,78,0.00,,,0.00,272,weatherlink.com 1.10,2013-07-21 19:21:00,
2013-07-21 15:36:00,66.2,58.0,29.94,NNE,23,1.0,3.0,76,0.00,,,0.00,220,weatherlink.com 1.10,2013-07-21 19:36:00,
2013-07-21 15:51:00,66.4,59.0,29.93,NE,46,1.0,3.0,77,0.00,,,0.00,264,weatherlink.com 1.10,2013-07-21 19:51:00,
2013-07-21 16:06:00,66.0,58.0,29.93,NE,46,0.0,2.0,76,0.00,,,0.00,246,weatherlink.com 1.10,2013-07-21 20:06:00,
2013-07-21 16:21:00,68.9,57.0,29.93,SSW,205,2.0,7.0,66,0.00,,,0.00,450,weatherlink.com 1.10,2013-07-21 20:21:00,
2013-07-21 16:37:00,68.8,56.0,29.92,SSE,168,0.0,7.0,65,0.00,,,0.00,353,weatherlink.com 1.10,2013-07-21 20:37:00,
2013-07-21 16:52:00,69.0,58.0,29.91,SW,227,3.0,8.0,68,0.00,,,0.00,285,weatherlink.com 1.10,2013-07-21 20:52:00,
2013-07-21 17:07:00,68.5,57.0,29.92,SSW,209,1.0,7.0,66,0.00,,,0.00,271,weatherlink.com 1.10,2013-07-21 21:07:00,
2013-07-21 17:22:00,69.5,58.0,29.91,SSE,161,1.0,6.0,66,0.00,,,0.00,388,weatherlink.com 1.10,2013-07-21 21:22:00,
2013-07-21 17:37:00,69.7,58.0,29.90,SSW,193,1.0,5.0,66,0.00,,,0.00,209,weatherlink.com 1.10,2013-07-21 21:37:00,
2013-07-21 17:52:00,69.5,57.0,29.89,South,184,4.0,9.0,65,0.00,,,0.00,100,weatherlink.com 1.10,2013-07-21 21:52:00,
2013-07-21 18:07:00,69.0,56.0,29.89,SSE,163,1.0,8.0,64,0.00,,,0.00,128,weatherlink.com 1.10,2013-07-21 22:07:00,
2013-07-21 18:22:00,69.1,56.0,29.89,SE,136,2.0,8.0,64,0.00,,,0.00,197,weatherlink.com 1.10,2013-07-21 22:22:00,
2013-07-21 18:37:00,68.6,57.0,29.89,SSW,202,3.0,6.0,66,0.00,,,0.00,60,weatherlink.com 1.10,2013-07-21 22:37:00,
2013-07-21 18:52:00,68.1,57.0,29.89,SSW,203,3.0,5.0,67,0.00,,,0.00,132,weatherlink.com 1.10,2013-07-21 22:52:00,
2013-07-21 19:07:00,68.1,57.0,29.88,South,183,1.0,4.0,67,0.00,,,0.00,121,weatherlink.com 1.10,2013-07-21 23:07:00,
2013-07-21 19:22:00,67.8,56.0,29.89,SW,217,1.0,5.0,67,0.00,,,0.00,91,weatherlink.com 1.10,2013-07-21 23:22:00,
2013-07-21 19:37:00,67.6,56.0,29.89,South,182,0.0,4.0,67,0.00,,,0.00,81,weatherlink.com 1.10,2013-07-21 23:37:00,
2013-07-21 19:52:00,67.4,56.0,29.89,South,182,0.0,3.0,68,0.00,,,0.00,69,weatherlink.com 1.10,2013-07-21 23:52:00,
2013-07-21 20:07:00,67.4,57.0,29.89,South,171,0.0,3.0,70,0.00,,,0.00,67,weatherlink.com 1.10,2013-07-22 00:07:00,
2013-07-21 20:22:00,67.3,56.0,29.89,South,171,0.0,3.0,68,0.00,,,0.00,33,weatherlink.com 1.10,2013-07-22 00:22:00,
2013-07-21 20:37:00,67.1,57.0,29.89,South,178,2.0,5.0,69,0.00,,,0.00,33,weatherlink.com 1.10,2013-07-22 00:37:00,
2013-07-21 20:52:00,66.5,56.0,29.89,South,175,0.0,3.0,69,0.00,,,0.00,19,weatherlink.com 1.10,2013-07-22 00:52:00,
2013-07-21 21:07:00,65.9,56.0,29.89,WSW,257,0.0,2.0,70,0.00,,,0.00,11,weatherlink.com 1.10,2013-07-22 01:07:00,
2013-07-21 21:22:00,65.3,56.0,29.88,WSW,257,0.0,1.0,73,0.00,,,0.00,5,weatherlink.com 1.10,2013-07-22 01:22:00,
2013-07-21 21:37:00,64.6,56.0,29.88,WSW,257,0.0,2.0,74,0.00,,,0.00,0,weatherlink.com 1.10,2013-07-22 01:37:00,
2013-07-21 21:52:00,64.1,56.0,29.87,WSW,257,0.0,2.0,75,0.00,,,0.00,0,weatherlink.com 1.10,2013-07-22 01:52:00,
2013-07-21 22:07:00,63.1,57.0,29.88,WSW,257,0.0,0.0,79,0.00,,,0.00,0,weatherlink.com 1.10,2013-07-22 02:07:00,
2013-07-21 22:22:00,61.4,56.0,29.88,WSW,257,0.0,1.0,82,0.00,,,0.00,0,weatherlink.com 1.10,2013-07-22 02:22:00,
2013-07-21 22:37:00,59.8,56.0,29.87,WSW,257,0.0,0.0,87,0.00,,,0.00,0,weatherlink.com 1.10,2013-07-22 02:37:00,
2013-07-21 22:52:00,58.8,55.0,29.87,WSW,257,0.0,0.0,88,0.00,,,0.00,0,weatherlink.com 1.10,2013-07-22 02:52:00,
2013-07-21 23:07:00,58.3,55.0,29.86,WSW,257,0.0,0.0,89,0.00,,,0.00,0,weatherlink.com 1.10,2013-07-22 03:07:00,
2013-07-21 23:22:00,58.0,55.0,29.87,WSW,257,0.0,1.0,91,0.00,,,0.00,0,weatherlink.com 1.10,2013-07-22 03:22:00,
2013-07-21 23:37:00,58.4,56.0,29.87,WSW,257,0.0,0.0,90,0.00,,,0.00,0,weatherlink.com 1.10,2013-07-22 03:37:00,
2013-07-21 23:52:00,58.6,55.0,29.86,WSW,257,0.0,0.0,88,0.00,,,0.00,0,weatherlink.com 1.10,2013-07-22 03:52:00,